Time,TemperatureF,DewpointF,PressureIn,WindDirection,WindDirectionDegrees,WindSpeedMPH,WindSpeedGustMPH,Humidity,HourlyPrecipIn,Conditions,Clouds,dailyrainin,SoftwareType,DateUTC
2013-01-09 00:02:00,29.5,11.7,-100.00,ENE,67,2.0,5.0,47,0.00,,,0.00,meteohub,2013-01-09 07:02:00,
2013-01-09 00:07:00,29.1,10.9,-100.00,WNW,292,1.0,3.0,46,0.00,,,0.00,meteohub,2013-01-09 07:07:00,
2013-01-09 00:12:00,28.6,10.9,-100.00,NNE,22,2.0,3.0,47,0.00,,,0.00,meteohub,2013-01-09 07:12:00,
2013-01-09 00:17:00,28.6,11.3,-100.00,NNE,22,1.0,3.0,48,0.00,,,0.00,meteohub,2013-01-09 07:17:00,
2013-01-09 00:22:00,29.3,12.6,-100.00,WNW,292,3.0,3.0,49,0.00,,,0.00,meteohub,2013-01-09 07:22:00,
2013-01-09 00:27:00,28.0,11.8,-100.00,NNW,337,4.0,4.0,50,0.00,,,0.00,meteohub,2013-01-09 07:27:00,
2013-01-09 00:32:00,29.7,14.2,-100.00,NNE,22,4.0,6.0,52,0.00,,,0.00,meteohub,2013-01-09 07:32:00,
2013-01-09 00:37:00,30.7,14.7,-100.00,NNW,337,4.0,6.0,51,0.00,,,0.00,meteohub,2013-01-09 07:37:00,
2013-01-09 00:42:00,29.5,13.6,-100.00,NNW,337,2.0,6.0,51,0.00,,,0.00,meteohub,2013-01-09 07:42:00,
2013-01-09 00:47:00,29.7,13.8,-100.00,SSW,202,0.0,5.0,51,0.00,,,0.00,meteohub,2013-01-09 07:47:00,
2013-01-09 00:52:00,29.1,13.3,-100.00,NNW,337,3.0,5.0,51,0.00,,,0.00,meteohub,2013-01-09 07:52:00,
2013-01-09 00:57:00,29.1,13.6,-100.00,NNW,337,4.0,5.0,52,0.00,,,0.00,meteohub,2013-01-09 07:57:00,
2013-01-09 01:03:00,28.6,13.1,-100.00,WNW,292,3.0,5.0,52,0.00,,,0.00,meteohub,2013-01-09 08:03:00,
2013-01-09 01:08:00,27.7,11.8,-100.00,SSE,157,3.0,5.0,51,0.00,,,0.00,meteohub,2013-01-09 08:08:00,
2013-01-09 01:13:00,27.5,12.2,-100.00,NNE,22,3.0,5.0,52,0.00,,,0.00,meteohub,2013-01-09 08:13:00,
2013-01-09 01:18:00,28.9,14.0,-100.00,NNW,337,4.0,4.0,53,0.00,,,0.00,meteohub,2013-01-09 08:18:00,
2013-01-09 01:23:00,29.3,13.8,-100.00,NNE,22,4.0,6.0,52,0.00,,,0.00,meteohub,2013-01-09 08:23:00,
2013-01-09 01:28:00,31.3,15.3,-100.00,NNW,337,3.0,6.0,51,0.00,,,0.00,meteohub,2013-01-09 08:28:00,
2013-01-09 01:33:00,32.2,16.2,-100.00,NNW,337,0.0,6.0,51,0.00,,,0.00,meteohub,2013-01-09 08:33:00,
2013-01-09 01:38:00,29.8,14.0,-100.00,NNW,337,2.0,6.0,51,0.00,,,0.00,meteohub,2013-01-09 08:38:00,
2013-01-09 01:43:00,29.5,13.6,-100.00,NNE,22,2.0,6.0,51,0.00,,,0.00,meteohub,2013-01-09 08:43:00,
2013-01-09 01:48:00,30.4,14.0,-100.00,SSW,202,0.0,4.0,50,0.00,,,0.00,meteohub,2013-01-09 08:48:00,
2013-01-09 01:53:00,29.1,12.7,-100.00,South,180,2.0,3.0,50,0.00,,,0.00,meteohub,2013-01-09 08:53:00,
2013-01-09 01:58:00,27.9,11.7,-100.00,East,90,0.0,3.0,50,0.00,,,0.00,meteohub,2013-01-09 08:58:00,
2013-01-09 02:03:00,28.2,12.0,-100.00,NNE,22,3.0,3.0,50,0.00,,,0.00,meteohub,2013-01-09 09:03:00,
2013-01-09 02:08:00,30.2,14.2,-100.00,NNW,337,2.0,3.0,51,0.00,,,0.00,meteohub,2013-01-09 09:08:00,
2013-01-09 02:13:00,28.6,12.4,-100.00,NNW,337,0.0,4.0,50,0.00,,,0.00,meteohub,2013-01-09 09:13:00,
2013-01-09 02:18:00,27.0,11.3,-100.00,NNW,337,3.0,4.0,51,0.00,,,0.00,meteohub,2013-01-09 09:18:00,
2013-01-09 02:24:00,27.5,12.6,-100.00,NNW,337,4.0,4.0,53,0.00,,,0.00,meteohub,2013-01-09 09:24:00,
2013-01-09 02:29:00,27.0,11.7,-100.00,SSW,202,0.0,5.0,52,0.00,,,0.00,meteohub,2013-01-09 09:29:00,
2013-01-09 02:34:00,27.0,11.7,-100.00,NNE,22,1.0,6.0,52,0.00,,,0.00,meteohub,2013-01-09 09:34:00,
2013-01-09 02:39:00,28.0,13.1,-100.00,NNE,22,5.0,6.0,53,0.00,,,0.00,meteohub,2013-01-09 09:39:00,
2013-01-09 02:44:00,28.9,13.5,-100.00,NNE,22,1.0,3.0,52,0.00,,,0.00,meteohub,2013-01-09 09:44:00,
2013-01-09 02:49:00,29.5,13.6,-100.00,NNW,337,2.0,5.0,51,0.00,,,0.00,meteohub,2013-01-09 09:49:00,
2013-01-09 02:54:00,29.1,13.3,-100.00,NNW,337,2.0,5.0,51,0.00,,,0.00,meteohub,2013-01-09 09:54:00,
2013-01-09 02:59:00,29.8,14.0,-100.00,NNW,337,2.0,5.0,51,0.00,,,0.00,meteohub,2013-01-09 09:59:00,
2013-01-09 03:04:00,28.9,13.1,-100.00,NNE,22,3.0,4.0,51,0.00,,,0.00,meteohub,2013-01-09 10:04:00,
2013-01-09 03:09:00,28.9,13.1,-100.00,East,90,1.0,3.0,51,0.00,,,0.00,meteohub,2013-01-09 10:09:00,
2013-01-09 03:14:00,28.4,12.6,-100.00,East,90,1.0,3.0,51,0.00,,,0.00,meteohub,2013-01-09 10:14:00,
2013-01-09 03:19:00,28.8,12.4,-100.00,NE,45,1.0,3.0,50,0.00,,,0.00,meteohub,2013-01-09 10:19:00,
2013-01-09 03:24:00,28.0,12.2,-100.00,NNW,337,2.0,3.0,51,0.00,,,0.00,meteohub,2013-01-09 10:24:00,
2013-01-09 03:29:00,27.3,11.7,-100.00,NE,45,2.0,3.0,51,0.00,,,0.00,meteohub,2013-01-09 10:29:00,
2013-01-09 03:34:00,27.9,12.0,-100.00,NNE,22,2.0,4.0,51,0.00,,,0.00,meteohub,2013-01-09 10:34:00,
2013-01-09 03:39:00,27.9,12.0,-100.00,ESE,112,0.0,4.0,51,0.00,,,0.00,meteohub,2013-01-09 10:39:00,
2013-01-09 03:45:00,27.7,11.8,-100.00,North,0,1.0,4.0,51,0.00,,,0.00,meteohub,2013-01-09 10:45:00,
2013-01-09 03:50:00,27.0,11.3,-100.00,NNE,22,3.0,3.0,51,0.00,,,0.00,meteohub,2013-01-09 10:50:00,
2013-01-09 03:55:00,27.3,12.0,-100.00,NNE,22,0.0,4.0,52,0.00,,,0.00,meteohub,2013-01-09 10:55:00,
2013-01-09 04:00:00,27.5,12.2,-100.00,NNE,22,3.0,4.0,52,0.00,,,0.00,meteohub,2013-01-09 11:00:00,
2013-01-09 04:05:00,27.1,11.8,-100.00,NNE,22,0.0,4.0,52,0.00,,,0.00,meteohub,2013-01-09 11:05:00,
2013-01-09 04:10:00,26.8,11.5,-100.00,SE,135,0.0,4.0,52,0.00,,,0.00,meteohub,2013-01-09 11:10:00,
2013-01-09 04:15:00,26.6,11.3,-100.00,WNW,292,1.0,4.0,52,0.00,,,0.00,meteohub,2013-01-09 11:15:00,
2013-01-09 04:20:00,26.6,11.3,-100.00,ENE,67,1.0,4.0,52,0.00,,,0.00,meteohub,2013-01-09 11:20:00,
2013-01-09 04:25:00,26.2,10.9,-100.00,NNW,337,2.0,3.0,52,0.00,,,0.00,meteohub,2013-01-09 11:25:00,
2013-01-09 04:30:00,26.2,10.9,-100.00,ENE,67,3.0,3.0,52,0.00,,,0.00,meteohub,2013-01-09 11:30:00,
2013-01-09 04:35:00,26.8,11.5,-100.00,NNE,22,1.0,4.0,52,0.00,,,0.00,meteohub,2013-01-09 11:35:00,
2013-01-09 04:40:00,26.2,10.9,-100.00,ESE,112,2.0,4.0,52,0.00,,,0.00,meteohub,2013-01-09 11:40:00,
2013-01-09 04:45:00,26.4,11.1,-100.00,ESE,112,2.0,3.0,52,0.00,,,0.00,meteohub,2013-01-09 11:45:00,
2013-01-09 04:50:00,26.1,10.8,-100.00,ENE,67,2.0,4.0,52,0.00,,,0.00,meteohub,2013-01-09 11:50:00,
2013-01-09 04:55:00,25.7,10.6,-100.00,NNW,337,2.0,4.0,52,0.00,,,0.00,meteohub,2013-01-09 11:55:00,
2013-01-09 05:00:00,25.5,10.4,-100.00,ESE,112,3.0,4.0,52,0.00,,,0.00,meteohub,2013-01-09 12:00:00,
2013-01-09 05:05:00,26.4,11.1,-100.00,NNW,337,2.0,3.0,52,0.00,,,0.00,meteohub,2013-01-09 12:05:00,
2013-01-09 05:11:00,26.2,10.9,-100.00,NNE,22,1.0,3.0,52,0.00,,,0.00,meteohub,2013-01-09 12:11:00,
2013-01-09 05:16:00,26.4,11.1,-100.00,NNE,22,0.0,3.0,52,0.00,,,0.00,meteohub,2013-01-09 12:16:00,
2013-01-09 05:21:00,26.4,11.1,-100.00,ESE,112,0.0,3.0,52,0.00,,,0.00,meteohub,2013-01-09 12:21:00,
2013-01-09 05:26:00,26.2,10.9,-100.00,NNE,22,2.0,4.0,52,0.00,,,0.00,meteohub,2013-01-09 12:26:00,
2013-01-09 05:31:00,27.9,12.6,-100.00,NNE,22,2.0,4.0,52,0.00,,,0.00,meteohub,2013-01-09 12:31:00,
2013-01-09 05:36:00,27.5,11.7,-100.00,NNE,22,0.0,4.0,51,0.00,,,0.00,meteohub,2013-01-09 12:36:00,
2013-01-09 05:41:00,27.0,11.3,-100.00,NNE,22,2.0,3.0,51,0.00,,,0.00,meteohub,2013-01-09 12:41:00,
2013-01-09 05:46:00,27.0,11.3,-100.00,East,90,2.0,2.0,51,0.00,,,0.00,meteohub,2013-01-09 12:46:00,
2013-01-09 05:51:00,27.5,11.7,-100.00,East,90,2.0,2.0,51,0.00,,,0.00,meteohub,2013-01-09 12:51:00,
2013-01-09 05:56:00,26.6,10.9,-100.00,NNW,337,2.0,3.0,51,0.00,,,0.00,meteohub,2013-01-09 12:56:00,
2013-01-09 06:01:00,27.0,11.3,-100.00,NNE,22,3.0,3.0,51,0.00,,,0.00,meteohub,2013-01-09 13:01:00,
2013-01-09 06:06:00,27.9,12.0,-100.00,ENE,67,1.0,4.0,51,0.00,,,0.00,meteohub,2013-01-09 13:06:00,
2013-01-09 06:11:00,27.7,11.8,-100.00,SSE,157,2.0,4.0,51,0.00,,,0.00,meteohub,2013-01-09 13:11:00,
2013-01-09 06:16:00,26.6,10.9,-100.00,NE,45,1.0,4.0,51,0.00,,,0.00,meteohub,2013-01-09 13:16:00,
2013-01-09 06:21:00,26.6,11.3,-100.00,East,90,3.0,3.0,52,0.00,,,0.00,meteohub,2013-01-09 13:21:00,
2013-01-09 06:26:00,26.1,10.4,-100.00,NNE,22,2.0,3.0,51,0.00,,,0.00,meteohub,2013-01-09 13:26:00,
2013-01-09 06:31:00,26.2,10.9,-100.00,NNW,337,3.0,4.0,52,0.00,,,0.00,meteohub,2013-01-09 13:31:00,
2013-01-09 06:37:00,25.7,10.6,-100.00,ENE,67,3.0,4.0,52,0.00,,,0.00,meteohub,2013-01-09 13:37:00,
2013-01-09 06:42:00,26.4,11.1,-100.00,ESE,112,2.0,4.0,52,0.00,,,0.00,meteohub,2013-01-09 13:42:00,
2013-01-09 06:47:00,27.0,11.3,-100.00,SSE,157,2.0,4.0,51,0.00,,,0.00,meteohub,2013-01-09 13:47:00,
2013-01-09 06:52:00,26.6,10.9,-100.00,ENE,67,1.0,4.0,51,0.00,,,0.00,meteohub,2013-01-09 13:52:00,
2013-01-09 06:57:00,26.1,10.4,-100.00,NNW,337,2.0,4.0,51,0.00,,,0.00,meteohub,2013-01-09 13:57:00,
2013-01-09 07:02:00,25.3,10.2,-100.00,NNE,22,4.0,4.0,52,0.00,,,0.00,meteohub,2013-01-09 14:02:00,
2013-01-09 07:07:00,26.8,11.5,-100.00,NNE,22,3.0,4.0,52,0.00,,,0.00,meteohub,2013-01-09 14:07:00,
2013-01-09 07:12:00,28.9,13.1,-100.00,ENE,67,0.0,4.0,51,0.00,,,0.00,meteohub,2013-01-09 14:12:00,
2013-01-09 07:17:00,29.5,13.1,-100.00,East,90,2.0,4.0,50,0.00,,,0.00,meteohub,2013-01-09 14:17:00,
2013-01-09 07:22:00,28.9,12.6,-100.00,North,0,0.0,4.0,50,0.00,,,0.00,meteohub,2013-01-09 14:22:00,
2013-01-09 07:27:00,28.0,11.8,-100.00,NW,315,0.0,4.0,50,0.00,,,0.00,meteohub,2013-01-09 14:27:00,
2013-01-09 07:32:00,28.4,12.2,-100.00,ESE,112,3.0,3.0,50,0.00,,,0.00,meteohub,2013-01-09 14:32:00,
2013-01-09 07:37:00,28.4,12.2,-100.00,East,90,2.0,4.0,50,0.00,,,0.00,meteohub,2013-01-09 14:37:00,
2013-01-09 07:42:00,29.3,12.6,-100.00,East,90,4.0,4.0,49,0.00,,,0.00,meteohub,2013-01-09 14:42:00,
2013-01-09 07:47:00,29.1,12.4,-100.00,NNW,337,0.0,5.0,49,0.00,,,0.00,meteohub,2013-01-09 14:47:00,
2013-01-09 07:52:00,29.1,12.4,-100.00,NNE,22,0.0,5.0,49,0.00,,,0.00,meteohub,2013-01-09 14:52:00,
2013-01-09 07:57:00,30.9,14.0,-100.00,NNE,22,5.0,5.0,49,0.00,,,0.00,meteohub,2013-01-09 14:57:00,
2013-01-09 08:02:00,32.0,15.1,-100.00,East,90,2.0,5.0,49,0.00,,,0.00,meteohub,2013-01-09 15:02:00,
2013-01-09 08:07:00,33.8,15.6,-100.00,NNE,22,3.0,5.0,47,0.00,,,0.00,meteohub,2013-01-09 15:07:00,
2013-01-09 08:12:00,34.2,15.6,-100.00,SSE,157,4.0,5.0,46,0.00,,,0.00,meteohub,2013-01-09 15:12:00,
2013-01-09 08:17:00,33.4,15.4,-100.00,ESE,112,3.0,5.0,47,0.00,,,0.00,meteohub,2013-01-09 15:17:00,
2013-01-09 08:22:00,33.4,15.4,-100.00,ESE,112,2.0,5.0,47,0.00,,,0.00,meteohub,2013-01-09 15:22:00,
2013-01-09 08:27:00,34.3,15.6,-100.00,ESE,112,0.0,5.0,46,0.00,,,0.00,meteohub,2013-01-09 15:27:00,
2013-01-09 08:32:00,36.1,17.4,-100.00,SSE,157,2.0,5.0,46,0.00,,,0.00,meteohub,2013-01-09 15:32:00,
2013-01-09 08:37:00,37.8,17.8,-100.00,SSE,157,5.0,5.0,44,0.00,,,0.00,meteohub,2013-01-09 15:37:00,
2013-01-09 08:42:00,37.0,17.1,-100.00,East,90,4.0,6.0,44,0.00,,,0.00,meteohub,2013-01-09 15:42:00,
2013-01-09 08:47:00,39.4,18.1,-100.00,East,90,3.0,6.0,42,0.00,,,0.00,meteohub,2013-01-09 15:47:00,
2013-01-09 08:52:00,41.7,19.8,-100.00,South,180,3.0,6.0,41,0.00,,,0.00,meteohub,2013-01-09 15:52:00,
2013-01-09 08:57:00,42.6,19.9,-100.00,South,180,3.0,4.0,40,0.00,,,0.00,meteohub,2013-01-09 15:57:00,
2013-01-09 09:02:00,43.9,21.2,-100.00,East,90,2.0,4.0,40,0.00,,,0.00,meteohub,2013-01-09 16:02:00,
2013-01-09 09:07:00,44.8,21.4,-100.00,ESE,112,2.0,4.0,39,0.00,,,0.00,meteohub,2013-01-09 16:07:00,
2013-01-09 09:12:00,46.6,22.3,-100.00,South,180,2.0,4.0,38,0.00,,,0.00,meteohub,2013-01-09 16:12:00,
2013-01-09 09:17:00,46.8,21.9,-100.00,SSE,157,4.0,4.0,37,0.00,,,0.00,meteohub,2013-01-09 16:17:00,
2013-01-09 09:22:00,47.1,22.1,-100.00,SSW,202,2.0,4.0,37,0.00,,,0.00,meteohub,2013-01-09 16:22:00,
2013-01-09 09:27:00,47.1,22.1,-100.00,SSE,157,2.0,4.0,37,0.00,,,0.00,meteohub,2013-01-09 16:27:00,
2013-01-09 09:32:00,47.7,22.1,-100.00,SSE,157,3.0,4.0,36,0.00,,,0.00,meteohub,2013-01-09 16:32:00,
2013-01-09 09:37:00,48.2,23.2,-100.00,SSE,157,3.0,4.0,37,0.00,,,0.00,meteohub,2013-01-09 16:37:00,
2013-01-09 09:42:00,49.5,23.5,-100.00,SSE,157,3.0,4.0,36,0.00,,,0.00,meteohub,2013-01-09 16:42:00,
2013-01-09 09:47:00,49.1,22.6,-100.00,SSW,202,4.0,4.0,35,0.00,,,0.00,meteohub,2013-01-09 16:47:00,
2013-01-09 09:53:00,48.7,22.3,-100.00,SSE,157,6.0,6.0,35,0.00,,,0.00,meteohub,2013-01-09 16:53:00,
2013-01-09 09:58:00,48.4,21.9,-100.00,SSW,202,4.0,9.0,35,0.00,,,0.00,meteohub,2013-01-09 16:58:00,
2013-01-09 10:03:00,48.9,22.5,-100.00,SSE,157,3.0,9.0,35,0.00,,,0.00,meteohub,2013-01-09 17:03:00,
2013-01-09 10:08:00,50.0,22.6,-100.00,SSE,157,3.0,9.0,34,0.00,,,0.00,meteohub,2013-01-09 17:08:00,
2013-01-09 10:13:00,50.4,23.0,-100.00,SSE,157,4.0,6.0,34,0.00,,,0.00,meteohub,2013-01-09 17:13:00,
2013-01-09 10:18:00,50.5,21.7,-100.00,South,180,4.0,5.0,32,0.00,,,0.00,meteohub,2013-01-09 17:18:00,
2013-01-09 10:23:00,50.5,21.7,-100.00,SSW,202,4.0,5.0,32,0.00,,,0.00,meteohub,2013-01-09 17:23:00,
2013-01-09 10:28:00,51.3,22.5,-100.00,SSE,157,3.0,6.0,32,0.00,,,0.00,meteohub,2013-01-09 17:28:00,
2013-01-09 10:33:00,51.3,20.8,-100.00,SSE,157,5.0,6.0,30,0.00,,,0.00,meteohub,2013-01-09 17:33:00,
2013-01-09 10:38:00,51.3,19.2,-100.00,South,180,4.0,6.0,28,0.00,,,0.00,meteohub,2013-01-09 17:38:00,
2013-01-09 10:43:00,52.2,20.1,-100.00,SSE,157,3.0,6.0,28,0.00,,,0.00,meteohub,2013-01-09 17:43:00,
2013-01-09 10:48:00,53.2,21.7,-100.00,SSW,202,3.0,6.0,29,0.00,,,0.00,meteohub,2013-01-09 17:48:00,
2013-01-09 10:53:00,54.3,21.9,-100.00,SSE,157,3.0,5.0,28,0.00,,,0.00,meteohub,2013-01-09 17:53:00,
2013-01-09 10:58:00,55.8,22.3,-100.00,WSW,247,4.0,5.0,27,0.00,,,0.00,meteohub,2013-01-09 17:58:00,
2013-01-09 11:03:00,55.8,8.8,-100.00,SSE,157,5.0,5.0,15,0.00,,,0.00,meteohub,2013-01-09 18:03:00,
2013-01-09 11:09:00,55.2,-0.4,-100.00,SSW,202,4.0,7.0,10,0.00,,,0.00,meteohub,2013-01-09 18:09:00,
2013-01-09 11:14:00,55.8,-10.7,-100.00,SSW,202,4.0,7.0,6,0.00,,,0.00,meteohub,2013-01-09 18:14:00,
2013-01-09 11:19:00,55.9,-10.5,-100.00,SSW,202,4.0,7.0,6,0.00,,,0.00,meteohub,2013-01-09 18:19:00,
2013-01-09 11:24:00,56.3,-10.3,-100.00,WNW,292,6.0,6.0,6,0.00,,,0.00,meteohub,2013-01-09 18:24:00,
2013-01-09 11:29:00,57.4,-9.4,-100.00,SSW,202,5.0,6.0,6,0.00,,,0.00,meteohub,2013-01-09 18:29:00,
2013-01-09 11:34:00,57.6,-9.2,-100.00,WSW,247,4.0,6.0,6,0.00,,,0.00,meteohub,2013-01-09 18:34:00,
2013-01-09 11:39:00,57.7,-9.2,-100.00,South,180,5.0,6.0,6,0.00,,,0.00,meteohub,2013-01-09 18:39:00,
2013-01-09 11:41:00,57.9,-9.0,-100.00,SSW,202,3.0,8.0,6,0.00,,,0.00,meteohub,2013-01-09 18:41:00,
2013-01-09 11:42:00,58.1,-8.9,-100.00,South,180,3.0,8.0,6,0.00,,,0.00,meteohub,2013-01-09 18:42:00,
2013-01-09 11:43:00,58.1,-8.9,-100.00,SSW,202,3.0,8.0,6,0.00,,,0.00,meteohub,2013-01-09 18:43:00,
2013-01-09 11:44:00,58.1,-8.9,-100.00,SSW,202,3.0,8.0,6,0.00,,,0.00,meteohub,2013-01-09 18:44:00,
2013-01-09 11:45:00,58.1,-8.9,-100.00,SSW,202,4.0,8.0,6,0.00,,,0.00,meteohub,2013-01-09 18:45:00,
2013-01-09 11:47:00,58.5,-8.7,-100.00,SSW,202,5.0,8.0,6,0.00,,,0.00,meteohub,2013-01-09 18:47:00,
2013-01-09 11:48:00,58.5,-8.7,-100.00,South,180,6.0,8.0,6,0.00,,,0.00,meteohub,2013-01-09 18:48:00,
2013-01-09 11:49:00,58.5,-8.7,-100.00,SSE,157,5.0,8.0,6,0.00,,,0.00,meteohub,2013-01-09 18:49:00,
2013-01-09 11:50:00,58.5,-8.7,-100.00,SSE,157,5.0,8.0,6,0.00,,,0.00,meteohub,2013-01-09 18:50:00,
2013-01-09 11:56:00,58.1,-8.9,-100.00,SSW,202,6.0,10.0,6,0.00,,,0.00,meteohub,2013-01-09 18:56:00,
2013-01-09 12:01:00,58.5,-8.7,-100.00,SSE,157,5.0,10.0,6,0.00,,,0.00,meteohub,2013-01-09 19:01:00,
2013-01-09 12:06:00,58.5,-8.7,-100.00,SSE,157,7.0,10.0,6,0.00,,,0.00,meteohub,2013-01-09 19:06:00,
2013-01-09 12:11:00,58.1,-8.9,-100.00,SSE,157,5.0,10.0,6,0.00,,,0.00,meteohub,2013-01-09 19:11:00,
2013-01-09 12:16:00,59.4,-8.0,-100.00,SSE,157,4.0,10.0,6,0.00,,,0.00,meteohub,2013-01-09 19:16:00,
2013-01-09 12:21:00,59.4,-8.0,-100.00,SSW,202,4.0,8.0,6,0.00,,,0.00,meteohub,2013-01-09 19:21:00,
2013-01-09 12:26:00,59.9,-7.6,-100.00,SSE,157,6.0,8.0,6,0.00,,,0.00,meteohub,2013-01-09 19:26:00,
2013-01-09 12:31:00,58.8,-8.3,-100.00,SSE,157,8.0,10.0,6,0.00,,,0.00,meteohub,2013-01-09 19:31:00,
2013-01-09 12:36:00,58.3,-8.9,-100.00,ESE,112,4.0,10.0,6,0.00,,,0.00,meteohub,2013-01-09 19:36:00,
2013-01-09 12:41:00,57.0,-6.5,-100.00,SSE,157,12.0,12.0,7,0.00,,,0.00,meteohub,2013-01-09 19:41:00,
2013-01-09 12:47:00,56.8,-6.7,-100.00,SSW,202,6.0,12.0,7,0.00,,,0.00,meteohub,2013-01-09 19:47:00,
2013-01-09 12:52:00,57.2,-1.1,-100.00,SSE,157,6.0,12.0,9,0.00,,,0.00,meteohub,2013-01-09 19:52:00,
2013-01-09 12:57:00,56.8,0.9,-100.00,SE,135,8.0,12.0,10,0.00,,,0.00,meteohub,2013-01-09 19:57:00,
2013-01-09 13:02:00,56.3,4.3,-100.00,SSW,202,7.0,8.0,12,0.00,,,0.00,meteohub,2013-01-09 20:02:00,
2013-01-09 13:07:00,56.3,9.1,-100.00,SSE,157,4.0,9.0,15,0.00,,,0.00,meteohub,2013-01-09 20:07:00,
2013-01-09 13:12:00,56.8,12.4,-100.00,SE,135,8.0,9.0,17,0.00,,,0.00,meteohub,2013-01-09 20:12:00,
2013-01-09 13:17:00,57.6,5.4,-100.00,ENE,67,2.0,8.0,12,0.00,,,0.00,meteohub,2013-01-09 20:17:00,
2013-01-09 13:22:00,57.9,5.5,-100.00,SSW,202,3.0,8.0,12,0.00,,,0.00,meteohub,2013-01-09 20:22:00,
2013-01-09 13:27:00,58.6,0.0,-100.00,SSE,157,4.0,8.0,9,0.00,,,0.00,meteohub,2013-01-09 20:27:00,
2013-01-09 13:32:00,59.5,0.7,-100.00,ENE,67,2.0,6.0,9,0.00,,,0.00,meteohub,2013-01-09 20:32:00,
2013-01-09 13:37:00,59.4,-8.0,-100.00,SSW,202,5.0,5.0,6,0.00,,,0.00,meteohub,2013-01-09 20:37:00,
2013-01-09 13:42:00,59.4,-4.7,-100.00,WSW,247,2.0,5.0,7,0.00,,,0.00,meteohub,2013-01-09 20:42:00,
2013-01-09 13:47:00,60.6,-3.8,-100.00,SSE,157,2.0,5.0,7,0.00,,,0.00,meteohub,2013-01-09 20:47:00,
2013-01-09 13:52:00,61.7,-9.9,-100.00,South,180,2.0,5.0,5,0.00,,,0.00,meteohub,2013-01-09 20:52:00,
2013-01-09 13:57:00,61.3,-10.3,-100.00,SSE,157,2.0,5.0,5,0.00,,,0.00,meteohub,2013-01-09 20:57:00,
2013-01-09 14:02:00,60.4,-7.2,-100.00,SSW,202,0.0,4.0,6,0.00,,,0.00,meteohub,2013-01-09 21:02:00,
2013-01-09 14:07:00,61.0,-10.5,-100.00,WSW,247,3.0,4.0,5,0.00,,,0.00,meteohub,2013-01-09 21:07:00,
2013-01-09 14:12:00,62.2,-9.6,-100.00,SSE,157,2.0,4.0,5,0.00,,,0.00,meteohub,2013-01-09 21:12:00,
2013-01-09 14:18:00,62.8,-9.2,-100.00,SE,135,2.0,4.0,5,0.00,,,0.00,meteohub,2013-01-09 21:18:00,
2013-01-09 14:23:00,63.5,-8.7,-100.00,SSE,157,5.0,5.0,5,0.00,,,0.00,meteohub,2013-01-09 21:23:00,
2013-01-09 14:28:00,63.5,-8.7,-100.00,ESE,112,1.0,5.0,5,0.00,,,0.00,meteohub,2013-01-09 21:28:00,
2013-01-09 14:33:00,62.6,-9.4,-100.00,SSW,202,4.0,5.0,5,0.00,,,0.00,meteohub,2013-01-09 21:33:00,
2013-01-09 14:38:00,62.2,-9.6,-100.00,ESE,112,2.0,5.0,5,0.00,,,0.00,meteohub,2013-01-09 21:38:00,
2013-01-09 14:43:00,62.4,-9.6,-100.00,SSW,202,2.0,4.0,5,0.00,,,0.00,meteohub,2013-01-09 21:43:00,
2013-01-09 14:48:00,63.1,-9.0,-100.00,SSW,202,0.0,4.0,5,0.00,,,0.00,meteohub,2013-01-09 21:48:00,
2013-01-09 14:53:00,63.0,-9.0,-100.00,SSW,202,4.0,4.0,5,0.00,,,0.00,meteohub,2013-01-09 21:53:00,
2013-01-09 14:58:00,62.2,-9.6,-100.00,East,90,3.0,4.0,5,0.00,,,0.00,meteohub,2013-01-09 21:58:00,
2013-01-09 15:03:00,63.1,-9.0,-100.00,SSE,157,2.0,4.0,5,0.00,,,0.00,meteohub,2013-01-09 22:03:00,
2013-01-09 15:08:00,63.0,-9.0,-100.00,ESE,112,3.0,4.0,5,0.00,,,0.00,meteohub,2013-01-09 22:08:00,
2013-01-09 15:13:00,60.6,-7.1,-100.00,SE,135,4.0,4.0,6,0.00,,,0.00,meteohub,2013-01-09 22:13:00,
2013-01-09 15:18:00,61.0,-10.5,-100.00,SSE,157,3.0,6.0,5,0.00,,,0.00,meteohub,2013-01-09 22:18:00,
2013-01-09 15:23:00,59.7,-7.8,-100.00,SSE,157,3.0,6.0,6,0.00,,,0.00,meteohub,2013-01-09 22:23:00,
2013-01-09 15:28:00,59.5,-7.8,-100.00,South,180,3.0,5.0,6,0.00,,,0.00,meteohub,2013-01-09 22:28:00,
2013-01-09 15:33:00,59.7,-7.8,-100.00,South,180,3.0,6.0,6,0.00,,,0.00,meteohub,2013-01-09 22:33:00,
2013-01-09 15:39:00,59.2,-8.1,-100.00,SSE,157,2.0,6.0,6,0.00,,,0.00,meteohub,2013-01-09 22:39:00,
2013-01-09 15:44:00,59.4,-8.0,-100.00,East,90,3.0,6.0,6,0.00,,,0.00,meteohub,2013-01-09 22:44:00,
2013-01-09 15:49:00,57.9,-9.0,-100.00,East,90,3.0,6.0,6,0.00,,,0.00,meteohub,2013-01-09 22:49:00,
2013-01-09 15:54:00,58.8,-8.3,-100.00,SSE,157,2.0,6.0,6,0.00,,,0.00,meteohub,2013-01-09 22:54:00,
2013-01-09 15:59:00,59.4,-8.0,-100.00,ESE,112,2.0,5.0,6,0.00,,,0.00,meteohub,2013-01-09 22:59:00,
2013-01-09 16:04:00,58.5,-8.7,-100.00,ESE,112,3.0,5.0,6,0.00,,,0.00,meteohub,2013-01-09 23:04:00,
2013-01-09 16:09:00,57.2,-9.6,-100.00,NNW,337,3.0,3.0,6,0.00,,,0.00,meteohub,2013-01-09 23:09:00,
2013-01-09 16:14:00,54.3,-8.5,-100.00,NNW,337,3.0,3.0,7,0.00,,,0.00,meteohub,2013-01-09 23:14:00,
2013-01-09 16:19:00,48.6,-10.1,-100.00,NNW,337,3.0,3.0,8,0.00,,,0.00,meteohub,2013-01-09 23:19:00,
2013-01-09 16:24:00,46.8,-11.6,-100.00,NNW,337,2.0,4.0,8,0.00,,,0.00,meteohub,2013-01-09 23:24:00,
2013-01-09 16:29:00,44.8,-10.7,-100.00,NNW,337,3.0,4.0,9,0.00,,,0.00,meteohub,2013-01-09 23:29:00,
2013-01-09 16:34:00,44.1,-11.2,-100.00,NNW,337,3.0,4.0,9,0.00,,,0.00,meteohub,2013-01-09 23:34:00,
2013-01-09 16:39:00,42.8,-10.1,-100.00,NNW,337,1.0,3.0,10,0.00,,,0.00,meteohub,2013-01-09 23:39:00,
2013-01-09 16:44:00,41.4,9.0,-100.00,NNE,22,4.0,4.0,26,0.00,,,0.00,meteohub,2013-01-09 23:44:00,
2013-01-09 16:49:00,41.4,10.8,-100.00,NNW,337,3.0,4.0,28,0.00,,,0.00,meteohub,2013-01-09 23:49:00,
2013-01-09 16:55:00,40.6,11.7,-100.00,NNE,22,3.0,4.0,30,0.00,,,0.00,meteohub,2013-01-09 23:55:00,
2013-01-09 17:00:00,41.0,11.1,-100.00,NNE,22,3.0,4.0,29,0.00,,,0.00,meteohub,2013-01-10 00:00:00,
2013-01-09 17:05:00,40.6,11.7,-100.00,NNW,337,2.0,4.0,30,0.00,,,0.00,meteohub,2013-01-10 00:05:00,
2013-01-09 17:10:00,38.8,10.0,-100.00,NNW,337,2.0,4.0,30,0.00,,,0.00,meteohub,2013-01-10 00:10:00,
2013-01-09 17:15:00,38.7,9.9,-100.00,NNE,22,2.0,3.0,30,0.00,,,0.00,meteohub,2013-01-10 00:15:00,
2013-01-09 17:20:00,39.0,10.2,-100.00,NNW,337,2.0,3.0,30,0.00,,,0.00,meteohub,2013-01-10 00:20:00,
2013-01-09 17:25:00,38.7,9.9,-100.00,NNW,337,2.0,2.0,30,0.00,,,0.00,meteohub,2013-01-10 00:25:00,
2013-01-09 17:30:00,37.9,10.0,-100.00,NNE,22,3.0,3.0,31,0.00,,,0.00,meteohub,2013-01-10 00:30:00,
2013-01-09 17:35:00,37.2,9.3,-100.00,NNE,22,2.0,3.0,31,0.00,,,0.00,meteohub,2013-01-10 00:35:00,
2013-01-09 17:40:00,37.4,10.2,-100.00,ENE,67,2.0,3.0,32,0.00,,,0.00,meteohub,2013-01-10 00:40:00,
2013-01-09 17:45:00,38.3,10.9,-100.00,NNE,22,2.0,3.0,32,0.00,,,0.00,meteohub,2013-01-10 00:45:00,
2013-01-09 17:50:00,38.8,12.2,-100.00,ENE,67,2.0,3.0,33,0.00,,,0.00,meteohub,2013-01-10 00:50:00,
2013-01-09 17:55:00,38.1,11.5,-100.00,NNW,337,0.0,3.0,33,0.00,,,0.00,meteohub,2013-01-10 00:55:00,
2013-01-09 18:00:00,37.4,10.9,-100.00,ENE,67,0.0,2.0,33,0.00,,,0.00,meteohub,2013-01-10 01:00:00,
2013-01-09 18:06:00,36.7,10.9,-100.00,ESE,112,1.0,2.0,34,0.00,,,0.00,meteohub,2013-01-10 01:06:00,
2013-01-09 18:11:00,36.7,11.7,-100.00,ENE,67,2.0,2.0,35,0.00,,,0.00,meteohub,2013-01-10 01:11:00,
2013-01-09 18:16:00,36.7,11.7,-100.00,WNW,292,2.0,2.0,35,0.00,,,0.00,meteohub,2013-01-10 01:16:00,
2013-01-09 18:21:00,35.4,11.1,-100.00,NNE,22,2.0,3.0,36,0.00,,,0.00,meteohub,2013-01-10 01:21:00,
2013-01-09 18:26:00,35.8,13.3,-100.00,NNE,22,4.0,4.0,39,0.00,,,0.00,meteohub,2013-01-10 01:26:00,
2013-01-09 18:31:00,35.4,12.4,-100.00,NNW,337,0.0,4.0,38,0.00,,,0.00,meteohub,2013-01-10 01:31:00,
2013-01-09 18:36:00,34.9,12.4,-100.00,NNW,337,3.0,4.0,39,0.00,,,0.00,meteohub,2013-01-10 01:36:00,
2013-01-09 18:41:00,34.7,12.9,-100.00,NNW,337,2.0,4.0,40,0.00,,,0.00,meteohub,2013-01-10 01:41:00,
2013-01-09 18:46:00,33.6,11.8,-100.00,NNW,337,2.0,4.0,40,0.00,,,0.00,meteohub,2013-01-10 01:46:00,
2013-01-09 18:52:00,33.4,12.7,-100.00,ENE,67,2.0,4.0,42,0.00,,,0.00,meteohub,2013-01-10 01:52:00,
2013-01-09 18:57:00,34.0,12.7,-100.00,NNE,22,4.0,4.0,41,0.00,,,0.00,meteohub,2013-01-10 01:57:00,
2013-01-09 19:02:00,34.7,13.5,-100.00,NW,315,1.0,4.0,41,0.00,,,0.00,meteohub,2013-01-10 02:02:00,
2013-01-09 19:07:00,34.0,12.7,-100.00,NNW,337,2.0,4.0,41,0.00,,,0.00,meteohub,2013-01-10 02:07:00,
2013-01-09 19:12:00,34.0,12.7,-100.00,NNE,22,1.0,4.0,41,0.00,,,0.00,meteohub,2013-01-10 02:12:00,
2013-01-09 19:17:00,33.8,12.6,-100.00,East,90,2.0,3.0,41,0.00,,,0.00,meteohub,2013-01-10 02:17:00,
2013-01-09 19:23:00,33.3,12.0,-100.00,NNW,337,1.0,3.0,41,0.00,,,0.00,meteohub,2013-01-10 02:23:00,
2013-01-09 19:28:00,32.7,12.2,-100.00,NNW,337,3.0,3.0,42,0.00,,,0.00,meteohub,2013-01-10 02:28:00,
2013-01-09 19:33:00,32.9,12.4,-100.00,NNE,22,2.0,4.0,42,0.00,,,0.00,meteohub,2013-01-10 02:33:00,
2013-01-09 19:38:00,33.4,12.7,-100.00,ENE,67,1.0,4.0,42,0.00,,,0.00,meteohub,2013-01-10 02:38:00,
2013-01-09 19:44:00,32.7,12.7,-100.00,NNE,22,3.0,4.0,43,0.00,,,0.00,meteohub,2013-01-10 02:44:00,
2013-01-09 19:49:00,33.8,13.1,-100.00,NNW,337,1.0,3.0,42,0.00,,,0.00,meteohub,2013-01-10 02:49:00,
2013-01-09 19:54:00,33.4,12.7,-100.00,NNW,337,0.0,4.0,42,0.00,,,0.00,meteohub,2013-01-10 02:54:00,
2013-01-09 19:59:00,33.3,12.6,-100.00,NNW,337,2.0,4.0,42,0.00,,,0.00,meteohub,2013-01-10 02:59:00,
2013-01-09 20:04:00,33.4,12.7,-100.00,ENE,67,1.0,3.0,42,0.00,,,0.00,meteohub,2013-01-10 03:04:00,
2013-01-09 20:09:00,33.1,12.6,-100.00,ESE,112,1.0,3.0,42,0.00,,,0.00,meteohub,2013-01-10 03:09:00,
2013-01-09 20:14:00,33.1,12.6,-100.00,WNW,292,3.0,3.0,42,0.00,,,0.00,meteohub,2013-01-10 03:14:00,
2013-01-09 20:19:00,32.5,12.0,-100.00,ENE,67,3.0,3.0,42,0.00,,,0.00,meteohub,2013-01-10 03:19:00,
2013-01-09 20:24:00,33.3,12.6,-100.00,ENE,67,2.0,4.0,42,0.00,,,0.00,meteohub,2013-01-10 03:24:00,
2013-01-09 20:29:00,33.8,13.1,-100.00,ESE,112,3.0,4.0,42,0.00,,,0.00,meteohub,2013-01-10 03:29:00,
2013-01-09 20:34:00,33.1,12.6,-100.00,NNW,337,3.0,4.0,42,0.00,,,0.00,meteohub,2013-01-10 03:34:00,
2013-01-09 20:40:00,32.5,12.0,-100.00,East,90,2.0,3.0,42,0.00,,,0.00,meteohub,2013-01-10 03:40:00,
2013-01-09 20:45:00,32.9,12.4,-100.00,ESE,112,3.0,3.0,42,0.00,,,0.00,meteohub,2013-01-10 03:45:00,
2013-01-09 20:50:00,33.1,12.6,-100.00,ESE,112,2.0,3.0,42,0.00,,,0.00,meteohub,2013-01-10 03:50:00,
2013-01-09 20:55:00,32.4,11.8,-100.00,NNW,337,2.0,3.0,42,0.00,,,0.00,meteohub,2013-01-10 03:55:00,
2013-01-09 21:00:00,32.2,11.7,-100.00,East,90,2.0,2.0,42,0.00,,,0.00,meteohub,2013-01-10 04:00:00,
2013-01-09 21:05:00,33.6,12.9,-100.00,ENE,67,3.0,3.0,42,0.00,,,0.00,meteohub,2013-01-10 04:05:00,
2013-01-09 21:10:00,34.2,13.5,-100.00,ESE,112,3.0,4.0,42,0.00,,,0.00,meteohub,2013-01-10 04:10:00,
2013-01-09 21:15:00,33.4,12.7,-100.00,East,90,1.0,4.0,42,0.00,,,0.00,meteohub,2013-01-10 04:15:00,
2013-01-09 21:20:00,34.7,14.0,-100.00,East,90,4.0,4.0,42,0.00,,,0.00,meteohub,2013-01-10 04:20:00,
2013-01-09 21:25:00,35.1,14.4,-100.00,East,90,3.0,4.0,42,0.00,,,0.00,meteohub,2013-01-10 04:25:00,
2013-01-09 21:30:00,34.9,14.2,-100.00,East,90,1.0,4.0,42,0.00,,,0.00,meteohub,2013-01-10 04:30:00,
2013-01-09 21:35:00,34.3,13.6,-100.00,WSW,247,0.0,4.0,42,0.00,,,0.00,meteohub,2013-01-10 04:35:00,
2013-01-09 21:40:00,34.0,13.3,-100.00,WNW,292,1.0,3.0,42,0.00,,,0.00,meteohub,2013-01-10 04:40:00,
2013-01-09 21:46:00,33.8,13.1,-100.00,NNE,22,0.0,3.0,42,0.00,,,0.00,meteohub,2013-01-10 04:46:00,
2013-01-09 21:51:00,36.7,15.3,-100.00,WNW,292,0.0,3.0,41,0.00,,,0.00,meteohub,2013-01-10 04:51:00,
2013-01-09 21:56:00,36.1,14.7,-100.00,ESE,112,3.0,6.0,41,0.00,,,0.00,meteohub,2013-01-10 04:56:00,
2013-01-09 22:01:00,36.3,14.9,-100.00,ESE,112,1.0,6.0,41,0.00,,,0.00,meteohub,2013-01-10 05:01:00,
2013-01-09 22:02:00,36.1,14.7,-100.00,ESE,112,2.0,6.0,41,0.00,,,0.00,meteohub,2013-01-10 05:02:00,
2013-01-09 22:03:00,36.3,14.9,-100.00,ENE,67,4.0,6.0,41,0.00,,,0.00,meteohub,2013-01-10 05:03:00,
2013-01-09 22:08:00,36.3,14.9,-100.00,NW,315,0.0,4.0,41,0.00,,,0.00,meteohub,2013-01-10 05:08:00,
2013-01-09 22:13:00,36.1,14.7,-100.00,SE,135,0.0,6.0,41,0.00,,,0.00,meteohub,2013-01-10 05:13:00,
2013-01-09 22:18:00,36.1,14.7,-100.00,NNW,337,1.0,6.0,41,0.00,,,0.00,meteohub,2013-01-10 05:18:00,
2013-01-09 22:23:00,35.2,13.8,-100.00,SSW,202,1.0,4.0,41,0.00,,,0.00,meteohub,2013-01-10 05:23:00,
2013-01-09 22:28:00,35.1,13.6,-100.00,NNE,22,0.0,4.0,41,0.00,,,0.00,meteohub,2013-01-10 05:28:00,
2013-01-09 22:33:00,35.6,14.2,-100.00,NW,315,1.0,4.0,41,0.00,,,0.00,meteohub,2013-01-10 05:33:00,
2013-01-09 22:38:00,34.5,13.3,-100.00,North,-999,-999.0,3.0,41,0.00,,,0.00,meteohub,2013-01-10 05:38:00,
2013-01-09 22:44:00,34.7,13.5,-100.00,NNE,22,1.0,3.0,41,0.00,,,0.00,meteohub,2013-01-10 05:44:00,
2013-01-09 22:49:00,34.5,13.8,-100.00,ESE,112,2.0,3.0,42,0.00,,,0.00,meteohub,2013-01-10 05:49:00,
2013-01-09 22:54:00,35.4,14.0,-100.00,ESE,112,2.0,4.0,41,0.00,,,0.00,meteohub,2013-01-10 05:54:00,
2013-01-09 22:59:00,34.3,13.1,-100.00,WSW,247,1.0,4.0,41,0.00,,,0.00,meteohub,2013-01-10 05:59:00,
2013-01-09 23:04:00,33.8,12.6,-100.00,WNW,292,1.0,4.0,41,0.00,,,0.00,meteohub,2013-01-10 06:04:00,
2013-01-09 23:09:00,32.9,12.4,-100.00,East,90,2.0,4.0,42,0.00,,,0.00,meteohub,2013-01-10 06:09:00,
2013-01-09 23:14:00,34.3,13.1,-100.00,ESE,112,2.0,4.0,41,0.00,,,0.00,meteohub,2013-01-10 06:14:00,
2013-01-09 23:19:00,33.8,12.6,-100.00,SSE,157,3.0,4.0,41,0.00,,,0.00,meteohub,2013-01-10 06:19:00,
2013-01-09 23:24:00,35.4,13.5,-100.00,SE,135,4.0,4.0,40,0.00,,,0.00,meteohub,2013-01-10 06:24:00,
2013-01-09 23:30:00,35.1,13.1,-100.00,NNE,22,2.0,5.0,40,0.00,,,0.00,meteohub,2013-01-10 06:30:00,
2013-01-09 23:35:00,34.0,12.2,-100.00,East,90,0.0,5.0,40,0.00,,,0.00,meteohub,2013-01-10 06:35:00,
2013-01-09 23:40:00,33.1,12.0,-100.00,East,90,1.0,2.0,41,0.00,,,0.00,meteohub,2013-01-10 06:40:00,
2013-01-09 23:45:00,33.1,11.3,-100.00,ESE,112,0.0,2.0,40,0.00,,,0.00,meteohub,2013-01-10 06:45:00,
2013-01-09 23:50:00,32.9,11.3,-100.00,SSE,157,2.0,2.0,40,0.00,,,0.00,meteohub,2013-01-10 06:50:00,
2013-01-09 23:55:00,32.2,10.6,-100.00,NNE,22,2.0,3.0,40,0.00,,,0.00,meteohub,2013-01-10 06:55:00,